Eugene, OR

10:19 AM PDT on September 26, 2017 (GMT -0700)
Mahlon Sweet

Weather History for KEUG - August, 2014

Change the Weather History Date:

Sunday, August 17, 2014

  Actual Average Record
Temperature  
Mean Temperature 75 °F 67 °F  
Max Temperature 92 °F 83 °F 97 °F (1940)
Min Temperature 57 °F 51 °F 40 °F (1935)
Degree Days  
Heating Degree Days 0 1  
Month to date heating degree days 0 17  
Since 1 June heating degree days 113 210  
Since 1 July heating degree days 6 53  
Cooling Degree Days 10 3  
Month to date cooling degree days 130 60  
Year to date cooling degree days 332 177  
Since 1 June cooling degree days 329 172  
Growing Degree Days 24 (Base 50)    
Moisture  
Dew Point 57 °F    
Average Humidity 60    
Maximum Humidity 90    
Minimum Humidity 29    
Precipitation  
Precipitation 0.00 in 0.02 in 1.07 in (1990)
Month to date precipitation 0.18 0.24  
Year to date precipitation 22.99 25.64  
Sea Level Pressure  
Sea Level Pressure 30.03 in    
Wind  
Wind Speed 7 mph (NNE)    
Max Wind Speed 22 mph    
Max Gust Speed 29 mph    
Visibility 10 miles    
Events      
T = Trace of Precipitation, MM = Missing Value Source: NWS Daily Summary

Daily Weather History Graph

Daily Weather History Graph

Search for Another Location

Airport or City:

Trip Planner

Search our weather history database for the weather conditions in past years. The results will help you decide how hot, cold, wet, or windy it might be!

Date:

Astronomy

Aug. 17, 2014 Rise Set
Actual Time 6:18 AM PDT 8:14 PM PDT
Civil Twilight 5:47 AM PDT 8:45 PM PDT
Nautical Twilight 5:09 AM PDT 9:23 PM PDT
Astronomical Twilight 4:27 AM PDT 10:04 PM PDT
Moon No Moon Rise 2:27 PM PDT (8/17)
Length of Visible Light 14h 57m
Length of Day
13h 55m
Waning Gibbous, 47% of the Moon is Illuminated
Aug 17
Waning Gibbous
Aug 25
New
Sep 2
First Quarter
Sep 8
Full
Sep 15
Last Quarter

Hourly Weather History & Observations

Time (PDT) Temp. Heat Index Dew Point Humidity Pressure Visibility Wind Dir Wind Speed Gust Speed Precip Events Conditions
12:54 AM 64.0 °F - 59.0 °F 84% 30.03 in 10.0 mi Calm Calm - N/A   Clear
1:54 AM 64.0 °F - 57.9 °F 80% 30.03 in 10.0 mi Calm Calm - N/A   Clear
2:54 AM 61.0 °F - 57.0 °F 87% 30.04 in 10.0 mi SSE 3.5 mph - N/A   Clear
3:54 AM 61.0 °F - 55.9 °F 83% 30.04 in 10.0 mi Calm Calm - N/A   Clear
4:54 AM 60.1 °F - 57.0 °F 90% 30.05 in 10.0 mi Calm Calm - N/A   Clear
5:54 AM 60.1 °F - 57.0 °F 90% 30.06 in 10.0 mi Calm Calm - N/A   Clear
6:54 AM 59.0 °F - 55.9 °F 90% 30.08 in 10.0 mi Calm Calm - N/A   Partly Cloudy
7:54 AM 64.9 °F - 60.1 °F 84% 30.09 in 10.0 mi Calm Calm - N/A   Clear
8:54 AM 71.1 °F - 60.1 °F 68% 30.09 in 10.0 mi North 3.5 mph - N/A   Clear
9:54 AM 75.0 °F - 60.1 °F 60% 30.09 in 10.0 mi NNE 11.5 mph - N/A   Clear
10:54 AM 78.1 °F - 60.1 °F 54% 30.09 in 10.0 mi NNW 9.2 mph - N/A   Partly Cloudy
11:54 AM 81.0 °F 81.3 °F 59.0 °F 47% 30.07 in 10.0 mi NNE 15.0 mph 19.6 mph N/A   Partly Cloudy
12:54 PM 84.0 °F 83.5 °F 57.9 °F 41% 30.06 in 10.0 mi North 15.0 mph 19.6 mph N/A   Scattered Clouds
1:54 PM 87.1 °F 85.9 °F 57.0 °F 36% 30.04 in 10.0 mi NNE 12.7 mph 19.6 mph N/A   Clear
2:54 PM 89.6 °F 88.1 °F 57.2 °F 33% 30.03 in 10.0 mi North 15.0 mph 20.7 mph N/A   Partly Cloudy
3:54 PM 90.0 °F 87.9 °F 55.0 °F 30% 30.00 in 10.0 mi NNE 15.0 mph 24.2 mph N/A   Partly Cloudy
4:54 PM 91.9 °F 90.0 °F 55.0 °F 29% 29.98 in 10.0 mi NNE 13.8 mph - N/A   Partly Cloudy
5:54 PM 90.0 °F 87.5 °F 53.1 °F 28% 29.96 in 10.0 mi North 16.1 mph - N/A   Partly Cloudy
6:54 PM 88.0 °F 85.9 °F 54.0 °F 31% 29.94 in 10.0 mi NNE 13.8 mph - N/A   Partly Cloudy
7:54 PM 82.0 °F 82.0 °F 57.9 °F 44% 29.95 in 10.0 mi North 9.2 mph - N/A   Partly Cloudy
8:54 PM 73.9 °F - 57.9 °F 57% 29.96 in 10.0 mi North 6.9 mph - N/A   Partly Cloudy
9:54 PM 70.0 °F - 57.0 °F 63% 29.98 in 10.0 mi North 5.8 mph - N/A   Partly Cloudy
10:54 PM 66.9 °F - 57.0 °F 70% 29.99 in 10.0 mi ENE 4.6 mph - N/A   Clear
11:54 PM 68.0 °F - 57.9 °F 70% 29.99 in 10.0 mi NNE 4.6 mph - N/A   Clear